Red Bluff, CA

11:43 AM PST on November 17, 2019 (GMT -0800)
Red Bluff Municipal

Weather History for KRBL - September, 2019

Change the Weather History Date:

Monday, September 2, 2019

  Actual Average Record
Temperature  
Mean Temperature 81 °F -  
Max Temperature 99 °F 95 °F 114 °F (2017)
Min Temperature 64 °F 63 °F 48 °F (1946)
Cooling Degree Days 16    
Growing Degree Days 31 (Base 50)    
Moisture  
Dew Point 49 °F    
Average Humidity 34    
Maximum Humidity 54    
Minimum Humidity 14    
Precipitation  
Precipitation 0.00 in - - ()
Sea Level Pressure  
Sea Level Pressure 29.87 in    
Wind  
Wind Speed 5 mph ()    
Max Wind Speed 13 mph    
Max Gust Speed -    
Visibility 10.0 miles    
Events      
Averages and records for this station are not official NWS values.
T = Trace of Precipitation, MM = Missing Value Source: Averaged Metar Reports

Daily Weather History Graph

Daily Weather History Graph

Search for Another Location

Airport or City:

Astronomy

Sep. 02, 2019 Rise Set
Actual Time 6:37 AM PDT 7:39 PM PDT
Civil Twilight 6:09 AM PDT 8:06 PM PDT
Nautical Twilight 5:36 AM PDT 8:39 PM PDT
Astronomical Twilight 5:01 AM PDT 9:14 PM PDT
Moon 10:26 AM PDT (9/2) 10:03 PM PDT (9/2)
Length of Visible Light 13h 57m
Length of Day
13h 01m
Waxing Crescent, 16% of the Moon is Illuminated
Sep 2
Waxing Crescent
Sep 5
First Quarter
Sep 13
Full
Sep 21
Last Quarter
Sep 28
New

Hourly Weather History & Observations

Time (PDT) Temp. Heat Index Dew Point Humidity Pressure Visibility Wind Dir Wind Speed Gust Speed Precip Events Conditions
12:54 AM 70.0 °F - 48.9 °F 47% 29.87 in 10.0 mi Calm Calm - N/A   Clear
1:54 AM 70.0 °F - 48.0 °F 46% 29.87 in 10.0 mi NW 4.6 mph - N/A   Clear
2:54 AM 69.1 °F - 48.0 °F 47% 29.88 in 10.0 mi NW 5.8 mph - N/A   Clear
3:54 AM 69.1 °F - 46.9 °F 45% 29.88 in 10.0 mi NW 6.9 mph - N/A   Clear
4:54 AM 66.9 °F - 48.0 °F 51% 29.88 in 10.0 mi WNW 5.8 mph - N/A   Clear
5:54 AM 66.0 °F - 46.9 °F 50% 29.90 in 10.0 mi NW 4.6 mph - N/A   Clear
6:54 AM 64.9 °F - 48.0 °F 54% 29.91 in 10.0 mi NW 4.6 mph - N/A   Clear
7:54 AM 71.1 °F - 50.0 °F 47% 29.92 in 10.0 mi NNW 5.8 mph - N/A   Clear
8:54 AM 79.0 °F - 48.9 °F 35% 29.92 in 10.0 mi NNW 6.9 mph - N/A   Clear
9:54 AM 84.9 °F - 48.0 °F 28% 29.92 in 10.0 mi North 5.8 mph - N/A   Clear
10:54 AM 89.1 °F - 46.9 °F 23% 29.91 in 10.0 mi NNW 4.6 mph - N/A   Clear
11:54 AM 91.9 °F - 46.9 °F 21% 29.91 in 10.0 mi SE 5.8 mph - N/A   Clear
12:54 PM 95.0 °F - 48.0 °F 20% 29.89 in 10.0 mi South 10.4 mph - N/A   Clear
1:54 PM 97.0 °F - 44.1 °F 16% 29.88 in 10.0 mi Variable 4.6 mph - N/A   Clear
2:54 PM 97.0 °F - 41.0 °F 14% 29.85 in 10.0 mi SSE 8.1 mph - N/A   Clear
3:54 PM 98.1 °F - 46.0 °F 17% 29.83 in 10.0 mi SSE 11.5 mph - N/A   Clear
4:54 PM 98.1 °F - 44.1 °F 16% 29.83 in 10.0 mi SSE 12.7 mph - N/A   Clear
5:54 PM 97.0 °F - 45.0 °F 17% 29.82 in 10.0 mi SSE 11.5 mph - N/A   Clear
6:54 PM 93.9 °F - 48.9 °F 21% 29.82 in 10.0 mi South 9.2 mph - N/A   Clear
7:54 PM 87.1 °F 84.9 °F 53.1 °F 31% 29.83 in 10.0 mi South 6.9 mph - N/A   Clear
8:54 PM 86.0 °F 84.7 °F 55.9 °F 36% 29.84 in 10.0 mi SSE 5.8 mph - N/A   Clear
9:54 PM 81.0 °F 80.8 °F 55.9 °F 42% 29.86 in 10.0 mi SE 4.6 mph - N/A   Clear
10:54 PM 79.0 °F - 55.9 °F 45% 29.88 in 10.0 mi South 5.8 mph - N/A   Clear
11:54 PM 73.0 °F - 55.0 °F 53% 29.88 in 10.0 mi North 3.5 mph - N/A   Clear